Weather History for KCKN - June, 2013

Change the Weather History Date:

Sunday, June 16, 2013

  Actual Average Record
Temperature  
Mean Temperature 68 °F -  
Max Temperature 80 °F 70 °F - (-1)
Min Temperature 55 °F 50 °F - (-1)
Cooling Degree Days 2    
Growing Degree Days 18 (Base 50)    
Moisture  
Dew Point 51 °F    
Average Humidity 54    
Maximum Humidity 77    
Minimum Humidity 32    
Precipitation  
Precipitation 0.00 in - - ()
Sea Level Pressure  
Sea Level Pressure 29.84 in    
Wind  
Wind Speed 10 mph (West)    
Max Wind Speed 30 mph    
Max Gust Speed 36 mph    
Visibility 10 miles    
Events      
Averages and records for this station are not official NWS values.
T = Trace of Precipitation, MM = Missing Value Source: NWS Daily Summary

Daily Weather History Graph

Daily Weather History Graph

Search for Another Location

Airport or City:

Trip Planner

Search our weather history database for the weather conditions in past years. The results will help you decide how hot, cold, wet, or windy it might be!

Date:

Astronomy

Jun. 16, 2013 Rise Set
Actual Time 5:27 AM CDT 9:27 PM CDT
Civil Twilight 4:46 AM CDT 10:08 PM CDT
Nautical Twilight 3:49 AM CDT 11:05 PM CDT
Astronomical Twilight 2:14 AM CDT 12:40 AM CDT
Moon 1:36 PM CDT (6/16) 1:03 AM CDT (6/16)
Length of Visible Light 17h 22m
Length of Day
16h 00m
Waxing Crescent, 50% of the Moon is Illuminated
Jun 16
Waxing Crescent
Jun 16
First Quarter
Jun 23
Full
Jun 29
Last Quarter
Jul 8
New

Hourly Weather History & Observations

Time (CDT) Temp. Dew Point Humidity Pressure Visibility Wind Dir Wind Speed Gust Speed Precip Events Conditions
12:14 AM 66.2 °F 48.2 °F 52% 29.84 in 10.0 mi West 8.1 mph - N/A   Scattered Clouds
12:34 AM 64.4 °F 48.2 °F 56% 29.83 in 10.0 mi West 8.1 mph - N/A   Scattered Clouds
12:55 AM 62.6 °F 48.2 °F 59% 29.83 in 10.0 mi West 9.2 mph - N/A   Scattered Clouds
1:14 AM 62.6 °F 48.2 °F 59% 29.83 in 10.0 mi West 5.8 mph - N/A   Clear
1:35 AM 60.8 °F 48.2 °F 63% 29.83 in 10.0 mi West 5.8 mph - N/A   Clear
1:55 AM 62.6 °F 50.0 °F 63% 29.83 in 10.0 mi West 6.9 mph - N/A   Scattered Clouds
2:14 AM 62.6 °F 50.0 °F 63% 29.83 in 10.0 mi West 8.1 mph - N/A   Mostly Cloudy
2:35 AM 62.6 °F 50.0 °F 63% 29.83 in 10.0 mi West 8.1 mph - N/A   Mostly Cloudy
2:55 AM 62.6 °F 50.0 °F 63% 29.83 in 10.0 mi WSW 8.1 mph - N/A   Scattered Clouds
3:14 AM 60.8 °F 50.0 °F 68% 29.84 in 10.0 mi West 6.9 mph - N/A   Clear
3:35 AM 59.0 °F 50.0 °F 72% 29.83 in 10.0 mi SW 3.5 mph - N/A   Clear
3:55 AM 57.2 °F 48.2 °F 72% 29.84 in 10.0 mi SSW 4.6 mph - N/A   Clear
4:14 AM 55.4 °F 48.2 °F 77% 29.84 in 10.0 mi Calm Calm - N/A   Scattered Clouds
4:35 AM 57.2 °F 48.2 °F 72% 29.84 in 10.0 mi SW 3.5 mph - N/A   Scattered Clouds
4:54 AM 55.4 °F 48.2 °F 77% 29.84 in 10.0 mi SW 4.6 mph - N/A   Clear
5:14 AM 55.4 °F 48.2 °F 77% 29.85 in 10.0 mi WSW 4.6 mph - N/A   Scattered Clouds
5:35 AM 57.2 °F 50.0 °F 77% 29.85 in 10.0 mi WSW 4.6 mph - N/A   Scattered Clouds
5:54 AM 57.2 °F 50.0 °F 77% 29.85 in 10.0 mi West 3.5 mph - N/A   Scattered Clouds
6:14 AM 59.0 °F 50.0 °F 72% 29.85 in 10.0 mi WSW 4.6 mph - N/A   Scattered Clouds
6:35 AM 59.0 °F 51.8 °F 77% 29.85 in 10.0 mi SW 3.5 mph - N/A   Clear
6:54 AM 60.8 °F 51.8 °F 72% 29.85 in 10.0 mi SW 5.8 mph - N/A   Clear
7:14 AM 62.6 °F 51.8 °F 68% 29.85 in 10.0 mi WSW 6.9 mph - N/A   Clear
7:35 AM 60.8 °F 51.8 °F 72% 29.86 in 10.0 mi West 6.9 mph - N/A   Scattered Clouds
7:54 AM 60.8 °F 51.8 °F 72% 29.85 in 10.0 mi Calm Calm - N/A   Scattered Clouds
8:14 AM 64.4 °F 53.6 °F 68% 29.84 in 10.0 mi SW 6.9 mph - N/A   Scattered Clouds
8:35 AM 66.2 °F 53.6 °F 64% 29.85 in 10.0 mi WSW 10.4 mph - N/A   Clear
8:54 AM 68.0 °F 53.6 °F 60% 29.84 in 10.0 mi WSW 9.2 mph - N/A   Clear
9:14 AM 69.8 °F 53.6 °F 56% 29.84 in 10.0 mi WSW 10.4 mph - N/A   Clear
9:35 AM 71.6 °F 53.6 °F 53% 29.84 in 10.0 mi WSW 11.5 mph - N/A   Clear
9:54 AM 73.4 °F 53.6 °F 50% 29.84 in 10.0 mi WSW 11.5 mph - N/A   Clear
10:15 AM 75.2 °F 53.6 °F 47% 29.84 in 10.0 mi West 13.8 mph - N/A   Clear
10:35 AM 75.2 °F 53.6 °F 47% 29.84 in 10.0 mi West 12.7 mph 20.7 mph N/A   Scattered Clouds
10:54 AM 75.2 °F 51.8 °F 44% 29.83 in 10.0 mi West 17.3 mph - N/A   Scattered Clouds
11:15 AM 75.2 °F 50.0 °F 41% 29.83 in 10.0 mi WNW 17.3 mph 23.0 mph N/A   Scattered Clouds
11:35 AM 77.0 °F 51.8 °F 41% 29.83 in 10.0 mi West 16.1 mph 21.9 mph N/A   Scattered Clouds
11:54 AM 78.8 °F 51.8 °F 39% 29.83 in 10.0 mi West 17.3 mph - N/A   Clear
12:15 PM 78.8 °F 51.8 °F 39% 29.83 in 10.0 mi WNW 19.6 mph - N/A   Scattered Clouds
12:35 PM 78.8 °F 51.8 °F 39% 29.82 in 10.0 mi WNW 15.0 mph 27.6 mph N/A   Scattered Clouds
12:54 PM 78.8 °F 51.8 °F 39% 29.82 in 10.0 mi WNW 16.1 mph - N/A   Scattered Clouds
1:15 PM 78.8 °F 51.8 °F 39% 29.81 in 10.0 mi WNW 16.1 mph 25.3 mph N/A   Scattered Clouds
1:35 PM 78.8 °F 48.2 °F 34% 29.81 in 10.0 mi NW 16.1 mph 32.2 mph N/A   Scattered Clouds
1:54 PM 80.6 °F 51.8 °F 37% 29.81 in 10.0 mi WNW 23.0 mph 29.9 mph N/A   Scattered Clouds
2:15 PM 80.6 °F 51.8 °F 37% 29.81 in 10.0 mi NW 18.4 mph 29.9 mph N/A   Clear
2:35 PM 80.6 °F 51.8 °F 37% 29.81 in 10.0 mi WNW 20.7 mph 27.6 mph N/A   Scattered Clouds
2:54 PM 78.8 °F 50.0 °F 36% 29.81 in 10.0 mi WNW 21.9 mph 31.1 mph N/A   Scattered Clouds
3:15 PM 80.6 °F 51.8 °F 37% 29.81 in 10.0 mi WNW 23.0 mph 32.2 mph N/A   Clear
3:34 PM 80.6 °F 50.0 °F 34% 29.81 in 10.0 mi WNW 24.2 mph 32.2 mph N/A   Scattered Clouds
3:54 PM 80.6 °F 48.2 °F 32% 29.81 in 10.0 mi NW 25.3 mph 35.7 mph N/A   Clear
4:15 PM 80.6 °F 50.0 °F 34% 29.81 in 10.0 mi NW 29.9 mph 34.5 mph N/A   Clear
4:34 PM 80.6 °F 50.0 °F 34% 29.81 in 10.0 mi NW 24.2 mph 29.9 mph N/A   Scattered Clouds
4:54 PM 78.8 °F 51.8 °F 39% 29.81 in 10.0 mi NNW 20.7 mph 28.8 mph N/A   Scattered Clouds
5:15 PM 77.0 °F 51.8 °F 41% 29.82 in 10.0 mi NW 19.6 mph 27.6 mph N/A   Clear
5:34 PM 77.0 °F 51.8 °F 41% 29.82 in 10.0 mi NW 21.9 mph 28.8 mph N/A   Clear
5:54 PM 77.0 °F 51.8 °F 41% 29.82 in 10.0 mi NW 23.0 mph 31.1 mph N/A   Clear
6:15 PM 75.2 °F 51.8 °F 44% 29.82 in 10.0 mi NW 19.6 mph 29.9 mph N/A   Scattered Clouds
6:34 PM 75.2 °F 48.2 °F 38% 29.83 in 10.0 mi NW 23.0 mph 27.6 mph N/A   Mostly Cloudy
6:54 PM 73.4 °F 50.0 °F 44% 29.83 in 10.0 mi WNW 21.9 mph 29.9 mph N/A   Mostly Cloudy
7:14 PM 73.4 °F 50.0 °F 44% 29.83 in 10.0 mi NW 18.4 mph - N/A   Scattered Clouds
7:34 PM 73.4 °F 50.0 °F 44% 29.84 in 10.0 mi NW 20.7 mph 24.2 mph N/A   Clear
7:55 PM 71.6 °F 51.8 °F 50% 29.84 in 10.0 mi NW 16.1 mph 25.3 mph N/A   Clear
8:14 PM 71.6 °F 51.8 °F 50% 29.84 in 10.0 mi NW 13.8 mph - N/A   Scattered Clouds
8:34 PM 69.8 °F 51.8 °F 53% 29.84 in 10.0 mi NW 9.2 mph - N/A   Mostly Cloudy
8:55 PM 69.8 °F 51.8 °F 53% 29.85 in 10.0 mi NW 9.2 mph - N/A   Overcast
9:14 PM 69.8 °F 51.8 °F 53% 29.85 in 10.0 mi NW 9.2 mph - N/A   Overcast
9:35 PM 66.2 °F 53.6 °F 64% 29.85 in 10.0 mi NW 5.8 mph - N/A   Overcast
9:55 PM 66.2 °F 53.6 °F 64% 29.86 in 10.0 mi NW 3.5 mph - N/A   Overcast
10:14 PM 66.2 °F 53.6 °F 64% 29.87 in 10.0 mi NW 3.5 mph - N/A   Overcast
10:35 PM 66.2 °F 53.6 °F 64% 29.87 in 10.0 mi Calm Calm - N/A   Scattered Clouds
10:54 PM 64.4 °F 53.6 °F 68% 29.87 in 10.0 mi Calm Calm - N/A   Scattered Clouds
11:14 PM 64.4 °F 53.6 °F 68% 29.87 in 10.0 mi WNW 3.5 mph - N/A   Scattered Clouds
11:35 PM 64.4 °F 51.8 °F 64% 29.87 in 10.0 mi West 4.6 mph - N/A   Scattered Clouds
11:55 PM 62.6 °F 51.8 °F 68% 29.87 in 10.0 mi West 5.8 mph - N/A   Scattered Clouds